| time (UTC) | temp F | wind direction | speed MPH | gust MPH | rain 1hr in | rain 24hr in | rain mn in | humidity % | barometer mb |
| 20260901014006 | 78 | 14 | 5.0 | 7.0 | 0.00 | 0.00 | 0.00 | 83 | 1018.5 |
| 20260901013006 | 78 | 17 | 6.0 | 9.0 | 0.00 | 0.00 | 0.00 | 83 | 1018.6 |
| 20260901010022 | 79 | 11 | 4.0 | 7.0 | 0.00 | 0.00 | 0.00 | 82 | 1019.0 |
| 20260901005005 | 79 | 10 | 4.0 | 6.0 | 0.00 | 0.00 | 0.00 | 82 | 1018.9 |
| 20260901004008 | 79 | 12 | 4.0 | 6.0 | 0.00 | 0.00 | 0.00 | 81 | 1019.0 |
| 20260901003006 | 79 | 23 | 4.0 | 7.0 | 0.00 | 0.00 | 0.00 | 81 | 1019.1 |
| 20260901002004 | 79 | 12 | 5.0 | 8.0 | 0.00 | 0.00 | 0.00 | 81 | 1019.1 |
| 20260901001004 | 79 | 17 | 4.0 | 7.0 | 0.00 | 0.00 | 0.00 | 81 | 1019.1 |
| 20260901000005 | 79 | 16 | 4.0 | 6.0 | 0.00 | 0.00 | 0.00 | 82 | 1019.1 |
| 20260831234004 | 79 | 32 | 2.0 | 4.0 | 0.00 | 0.00 | 0.00 | 81 | 1019.3 |
| 20260831233008 | 80 | 46 | 2.0 | 3.0 | 0.00 | 0.00 | 0.00 | 80 | 1019.3 |
| 20260831232007 | 80 | 13 | 4.0 | 6.0 | 0.00 | 0.00 | 0.00 | 80 | 1019.3 |
| 20260831231004 | 80 | 15 | 4.0 | 7.0 | 0.00 | 0.00 | 0.00 | 81 | 1019.1 |
| 20260831230004 | 80 | 6 | 4.0 | 7.0 | 0.00 | 0.00 | 0.00 | 80 | 1019.1 |
| 20260831225004 | 80 | 10 | 5.0 | 9.0 | 0.00 | 0.00 | 0.00 | 81 | 1019.1 |
| 20260831224019 | 79 | 7 | 4.0 | 7.0 | 0.00 | 0.00 | 0.00 | 81 | 1019.1 |
| 20260831222004 | 80 | 21 | 5.0 | 8.0 | 0.00 | 0.00 | 0.00 | 81 | 1019.0 |
| 20260831220009 | 80 | 28 | 4.0 | 7.0 | 0.00 | 0.00 | 0.00 | 81 | 1018.9 |
| 20260831215003 | 80 | 51 | 7.0 | 10.0 | 0.00 | 0.00 | 0.00 | 81 | 1018.8 |
| 20260831213005 | 80 | 41 | 4.0 | 6.0 | 0.00 | 0.00 | 0.00 | 80 | 1018.7 |
| 20260831212004 | 80 | 42 | 6.0 | 9.0 | 0.00 | 0.00 | 0.00 | 79 | 1018.6 |
| 20260831211004 | 80 | 51 | 6.0 | 9.0 | 0.00 | 0.00 | 0.00 | 79 | 1018.6 |
| 20260831210007 | 80 | 45 | 5.0 | 8.0 | 0.00 | 0.00 | 0.00 | 80 | 1018.5 |
| 20260831205010 | 80 | 41 | 5.0 | 8.0 | 0.00 | 0.00 | 0.00 | 80 | 1018.4 |
| 20260831204009 | 80 | 42 | 6.0 | 9.0 | 0.00 | 0.00 | 0.00 | 80 | 1018.4 |
| 20260831203026 | 80 | 51 | 6.0 | 9.0 | 0.00 | 0.00 | 0.00 | 80 | 1018.3 |
| 20260831202004 | 80 | 54 | 6.0 | 10.0 | 0.00 | 0.00 | 0.00 | 81 | 1018.2 |
| 20260831201005 | 80 | 48 | 6.0 | 9.0 | 0.00 | 0.00 | 0.00 | 81 | 1018.1 |
| 20260831195007 | 80 | 53 | 6.0 | 10.0 | 0.00 | 0.00 | 0.00 | 80 | 1017.8 |
| 20260831194006 | 79 | 47 | 7.0 | 10.0 | 0.00 | 0.00 | 0.00 | 80 | 1017.6 |
| 20260831193005 | 79 | 30 | 7.0 | 12.0 | 0.00 | 0.00 | 0.00 | 80 | 1017.3 |
| 20260831192005 | 79 | 49 | 7.0 | 12.0 | 0.00 | 0.00 | 0.00 | 79 | 1017.2 |
| 20260831191005 | 80 | 50 | 6.0 | 10.0 | 0.00 | 0.00 | 0.00 | 78 | 1017.0 |
| 20260831190004 | 80 | 38 | 7.0 | 10.0 | 0.00 | 0.00 | 0.00 | 77 | 1016.9 |
| 20260831185003 | 81 | 57 | 6.0 | 9.0 | 0.00 | 0.00 | 0.00 | 74 | 1016.8 |
| 20260831184006 | 81 | 50 | 6.0 | 10.0 | 0.00 | 0.00 | 0.00 | 73 | 1016.8 |
| 20260831183006 | 82 | 60 | 8.0 | 14.0 | 0.00 | 0.00 | 0.00 | 72 | 1016.7 |
| 20260831182005 | 82 | 61 | 8.0 | 12.0 | 0.00 | 0.00 | 0.00 | 72 | 1016.6 |
| 20260831181031 | 83 | 53 | 9.0 | 15.0 | 0.00 | 0.00 | 0.00 | 69 | 1016.6 |
| 20260831180007 | 83 | 56 | 9.0 | 16.0 | 0.00 | 0.00 | 0.00 | 67 | 1016.5 |
| 20260831173005 | 84 | 34 | 8.0 | 12.0 | 0.00 | 0.00 | 0.00 | 66 | 1016.5 |
| 20260831171006 | 85 | 61 | 8.0 | 13.0 | 0.00 | 0.00 | 0.00 | 63 | 1016.3 |
| 20260831165004 | 86 | 99 | 7.0 | 11.0 | 0.00 | 0.00 | 0.00 | 60 | 1016.3 |
| 20260831164004 | 85 | 90 | 7.0 | 10.0 | 0.00 | 0.00 | 0.00 | 61 | 1016.4 |
| 20260831163006 | 86 | 82 | 7.0 | 10.0 | 0.00 | 0.00 | 0.00 | 62 | 1016.6 |
| 20260831161004 | 85 | 96 | 7.0 | 12.0 | 0.00 | 0.00 | 0.00 | 64 | 1016.7 |
| 20260831160006 | 85 | 89 | 7.0 | 12.0 | 0.00 | 0.00 | 0.00 | 64 | 1016.7 |
| 20260831155004 | 86 | 86 | 7.0 | 13.0 | 0.00 | 0.00 | 0.00 | 63 | 1016.8 |
| 20260831154005 | 85 | 84 | 9.0 | 13.0 | 0.00 | 0.00 | 0.00 | 65 | 1016.8 |
| 20260831152004 | 85 | 89 | 8.0 | 13.0 | 0.00 | 0.00 | 0.00 | 65 | 1016.9 |
| 20260831151004 | 86 | 59 | 11.0 | 16.0 | 0.00 | 0.00 | 0.00 | 63 | 1016.9 |
| 20260831145004 | 87 | 65 | 9.0 | 15.0 | 0.00 | 0.00 | 0.00 | 62 | 1017.0 |
| 20260831144006 | 86 | 82 | 9.0 | 14.0 | 0.00 | 0.00 | 0.00 | 62 | 1017.0 |
| 20260831143005 | 86 | 90 | 10.0 | 17.0 | 0.00 | 0.00 | 0.00 | 63 | 1017.0 |
| 20260831142004 | 88 | 59 | 10.0 | 17.0 | 0.00 | 0.00 | 0.00 | 61 | 1017.0 |
| 20260831141006 | 87 | 50 | 14.0 | 22.0 | 0.00 | 0.00 | 0.00 | 62 | 1017.0 |
| 20260831140006 | 87 | 51 | 13.0 | 21.0 | 0.00 | 0.00 | 0.00 | 61 | 1017.0 |
| 20260831135005 | 88 | 68 | 13.0 | 20.0 | 0.00 | 0.00 | 0.00 | 61 | 1017.0 |
| 20260831134006 | 88 | 53 | 13.0 | 20.0 | 0.00 | 0.00 | 0.00 | 59 | 1017.1 |
| 20260831133006 | 88 | 50 | 14.0 | 23.0 | 0.00 | 0.00 | 0.00 | 61 | 1017.1 |
| 20260831132005 | 88 | 51 | 16.0 | 24.0 | 0.00 | 0.00 | 0.00 | 60 | 1017.1 |
| 20260831131004 | 88 | 42 | 14.0 | 24.0 | 0.00 | 0.00 | 0.00 | 59 | 1017.1 |
| 20260831130006 | 87 | 65 | 15.0 | 23.0 | 0.00 | 0.00 | 0.00 | 60 | 1017.2 |
| 20260831124005 | 88 | 40 | 13.0 | 22.0 | 0.00 | 0.00 | 0.00 | 57 | 1017.4 |
| 20260831123006 | 88 | 57 | 16.0 | 25.0 | 0.00 | 0.00 | 0.00 | 58 | 1017.4 |
| 20260831121004 | 89 | 54 | 12.0 | 20.0 | 0.00 | 0.00 | 0.00 | 56 | 1017.6 |
| 20260831120012 | 89 | 46 | 11.0 | 18.0 | 0.00 | 0.00 | 0.00 | 57 | 1017.7 |
| 20260831115008 | 88 | 42 | 11.0 | 19.0 | 0.00 | 0.00 | 0.00 | 59 | 1017.9 |
| 20260831114006 | 88 | 62 | 12.0 | 18.0 | 0.00 | 0.00 | 0.00 | 58 | 1017.9 |
| 20260831113024 | 88 | 78 | 10.0 | 17.0 | 0.00 | 0.00 | 0.00 | 58 | 1018.0 |
| 20260831112008 | 87 | 52 | 12.0 | 19.0 | 0.00 | 0.00 | 0.00 | 58 | 1017.9 |
| 20260831111007 | 87 | 74 | 10.0 | 16.0 | 0.00 | 0.00 | 0.00 | 61 | 1018.0 |
| 20260831110009 | 87 | 61 | 13.0 | 21.0 | 0.00 | 0.00 | 0.00 | 62 | 1018.1 |
| 20260831105019 | 87 | 74 | 10.0 | 18.0 | 0.00 | 0.00 | 0.00 | 63 | 1018.2 |
| 20260831104005 | 86 | 48 | 10.0 | 16.0 | 0.00 | 0.00 | 0.00 | 63 | 1018.2 |
| 20260831103005 | 87 | 65 | 13.0 | 19.0 | 0.00 | 0.00 | 0.00 | 61 | 1018.2 |
| 20260831102003 | 87 | 69 | 12.0 | 19.0 | 0.00 | 0.00 | 0.00 | 60 | 1018.1 |
| 20260831101004 | 87 | 67 | 11.0 | 19.0 | 0.00 | 0.00 | 0.00 | 60 | 1018.0 |
| 20260831100005 | 87 | 66 | 9.0 | 15.0 | 0.00 | 0.00 | 0.00 | 59 | 1018.0 |
| 20260831093005 | 87 | 70 | 6.0 | 10.0 | 0.00 | 0.00 | 0.00 | 58 | 1017.8 |
| 20260831091005 | 86 | 38 | 9.0 | 13.0 | 0.00 | 0.00 | 0.00 | 58 | 1017.7 |
| 20260831090005 | 86 | 57 | 7.0 | 10.0 | 0.00 | 0.00 | 0.00 | 58 | 1017.5 |
| 20260831084005 | 86 | 24 | 4.0 | 7.0 | 0.00 | 0.00 | 0.00 | 56 | 1017.4 |
| 20260831083005 | 85 | 22 | 3.0 | 6.0 | 0.00 | 0.00 | 0.00 | 56 | 1017.4 |
| 20260831082004 | 84 | 350 | 2.0 | 3.0 | 0.00 | 0.00 | 0.00 | 58 | 1017.3 |
| 20260831081004 | 82 | 298 | 3.0 | 5.0 | 0.00 | 0.00 | 0.00 | 61 | 1017.3 |
| 20260831080005 | 81 | 292 | 4.0 | 6.0 | 0.00 | 0.00 | 0.00 | 61 | 1017.2 |
| 20260831074005 | 78 | 283 | 4.0 | 6.0 | 0.00 | 0.00 | 0.00 | 61 | 1017.2 |
| 20260831073005 | 77 | 281 | 4.0 | 7.0 | 0.00 | 0.00 | 0.00 | 59 | 1017.2 |
| 20260831072004 | 77 | 280 | 3.0 | 5.0 | 0.00 | 0.00 | 0.00 | 58 | 1017.1 |
| 20260831071004 | 76 | 310 | 5.0 | 8.0 | 0.00 | 0.00 | 0.00 | 59 | 1017.0 |
| 20260831070007 | 75 | 310 | 4.0 | 7.0 | 0.00 | 0.00 | 0.00 | 61 | 1016.8 |
| 20260831065004 | 74 | 293 | 5.0 | 8.0 | 0.00 | 0.00 | 0.00 | 60 | 1016.8 |
| 20260831064005 | 74 | 307 | 5.0 | 7.0 | 0.00 | 0.00 | 0.00 | 60 | 1016.7 |
| 20260831062004 | 74 | 320 | 2.0 | 4.0 | 0.00 | 0.00 | 0.00 | 63 | 1016.4 |
| 20260831061004 | 73 | 324 | 1.0 | 2.0 | 0.00 | 0.00 | 0.00 | 66 | 1016.3 |
| 20260831060007 | 73 | 337 | 2.0 | 3.0 | 0.00 | 0.00 | 0.00 | 67 | 1016.2 |
| 20260831054008 | 72 | 329 | 1.0 | 3.0 | 0.00 | 0.00 | 0.00 | 68 | 1016.0 |
| 20260831052004 | 72 | 310 | 2.0 | 4.0 | 0.00 | 0.00 | 0.00 | 72 | 1015.9 |
| 20260831051004 | 72 | 338 | 3.0 | 5.0 | 0.00 | 0.00 | 0.00 | 72 | 1015.8 |
| 20260831050005 | 72 | 355 | 1.0 | 3.0 | 0.00 | 0.00 | 0.00 | 76 | 1015.7 |
| 20260831045004 | 72 | 356 | 2.0 | 3.0 | 0.00 | 0.00 | 0.00 | 77 | 1015.6 |
| 20260831044006 | 72 | 335 | 1.0 | 2.0 | 0.00 | 0.00 | 0.00 | 77 | 1015.6 |
| 20260831043006 | 73 | 312 | 3.0 | 4.0 | 0.00 | 0.00 | 0.00 | 77 | 1015.6 |
| 20260831042012 | 73 | 299 | 3.0 | 6.0 | 0.00 | 0.00 | 0.00 | 78 | 1015.5 |
| 20260831041006 | 73 | 310 | 5.0 | 7.0 | 0.00 | 0.00 | 0.00 | 79 | 1015.5 |
| 20260831040007 | 73 | 301 | 3.0 | 5.0 | 0.00 | 0.00 | 0.00 | 80 | 1015.4 |
| 20260831035005 | 73 | 295 | 4.0 | 6.0 | 0.00 | 0.00 | 0.00 | 79 | 1015.5 |
| 20260831034006 | 73 | 307 | 5.0 | 8.0 | 0.00 | 0.00 | 0.00 | 80 | 1015.5 |
| 20260831033004 | 73 | 306 | 5.0 | 8.0 | 0.00 | 0.00 | 0.00 | 82 | 1015.5 |
| 20260831032022 | 73 | 292 | 3.0 | 5.0 | 0.00 | 0.00 | 0.00 | 82 | 1015.5 |
| 20260831030006 | 73 | 292 | 3.0 | 4.0 | 0.00 | 0.00 | 0.00 | 82 | 1015.5 |
| 20260831025005 | 73 | 262 | 3.0 | 4.0 | 0.00 | 0.00 | 0.00 | 82 | 1015.6 |
| 20260831021005 | 74 | 281 | 4.0 | 7.0 | 0.00 | 0.00 | 0.00 | 81 | 1015.5 |
| 20260831020008 | 74 | 290 | 7.0 | 10.0 | 0.00 | 0.00 | 0.00 | 81 | 1015.5 |
| 20260831015005 | 75 | 292 | 4.0 | 6.0 | 0.00 | 0.00 | 0.00 | 80 | 1015.4 |